{"data":{"norad_id":53859,"epoch":"2026-09-20T21:24:49.226688Z","epoch_age_seconds":50163,"freshness":"FRESH","line1":"1 53859U 22114AT  26263.89223642  .00000794  00000+0  37326-4 0  9999","line2":"2 53859  53.1596 122.1452 0001175  88.2742 271.8394 15.31713089222652","mean_motion":15.31713089,"eccentricity":0.0001175,"inclination_deg":53.1596,"raan_deg":122.1452,"arg_perigee_deg":88.2742,"mean_anomaly_deg":271.8394,"bstar":3.7326e-5,"rev_number":22265,"period_min":94.012384586994,"perigee_km":469.89623941319,"apogee_km":471.50571633799,"semimajor_km":6848.8379778756,"source":"CELESTRAK","updated_at":"2026-09-21T09:00:33.024887Z"}}